Location: Diati
(11.8376°N, 2.5966°E)
Time: 18:12:13
(UTC+00:00)

Delta 168 - Pass Details

Date: 21 September 2020
Orbit: 394 x 2050 km, 25.3° (Epoch: 19 October)

Event Time Altitude Azimuth Distance (km) Brightness Sun altitude
Rises 18:26:18 0° 299° (WNW) 3,357 8.1 -10.7°
Reaches altitude 10° 18:29:23 10° 306° (NW) 2,151 6.8 -11.4°
Maximum altitude 18:33:54 40° 16° (NNE) 803 3.5 -12.5°
Enters shadow 18:35:59 20° 76° (ENE) 1,147 3.9 -13.0°
